Find OneWeb SL0362

NORAD ID: 49288 Int'l Des: 2021-090 Owner: ONEWEBN Country: UK Constellation: oneweb operational
LEOCIRCULARPOLARONEWEB_TYPE

Live Position

Loading 3D Globe...

About OneWeb SL0362

Description loading...

Upcoming Passes

Passes for default location (London). Set your location on the main map for personalized predictions.

Altitude History

Loading altitude history...

Two-Line Element Set

1 49288U 21090K 26111.92116595 -.00000003 00000-0 -39356-4 0 9997
2 49288 87.9158 316.2000 0001732 79.0187 281.1141 13.19723877219499
Epoch: Apr 21, 2026 • Age: 20 hours

Current Status

Altitude 1187.7 km
Velocity 7.26 km/s
Sub-Earth Point 21.74°N, 167.45°W
Launch Date Oct 14, 2021
Age 4.5 years
Type internet

Technical Details

Classification Payload
Mass 148.00 kg
Dry Mass 140.00 kg
Total Mass 148.00 kg
Length 1.30 m
Diameter 1.00 m
Span 5.00 m
Shape Trapezoid+2 pan
Manufacturer ONEWUS
Bus Type ARROW
Phase Status In Orbit
Owner/State ONEWEBN/UK

Most Searched